COSMOS 1275 DEB, 42111

Orbit data source: Space-Track

COSMOS 1275 DEB, 42111 is space debris in LEO originally from a launch on Thu, 04 Jun 1981 UTC launched from the Plesetsk Missile And Space Complex (PKMTR). Debris objects in space refer to the collection of defunct objects orbiting the Earth. Examples of debris include non-operational satellites, rocket bodies, and fragments generated from explosions, collisions, or faulty payload assembly.

Loading next visibility...
Identifier
42111, 1981-053PX
Orbit
LEO
Country
Flag of CISCIS
Related business
Manufacturer
Unknown
Mission
Spacecraft
Bus & Motor
Unknown
Mass
Unknown
Launch date (UTC)
1981-06-04 (45 years ago)
Launch vehicle
Unknown
Launch site
Plesetsk Missile And Space Complex (PKMTR)
Object type
Payload
Rocket body
Debris
Shape & HBR
Unknown shape, 0.1 m
Radar Cross Section
Small (<0.1 m²)

Expand to show TLE details & history
Last TLE update: 1 day ago

TLE from 1 day ago
0 COSMOS 1275 DEB
1 42111U 81053PX  26144.83134228  .00003320  00000-0  11896-2 0  9999
2 42111  82.8034 291.3310 0036636  54.7997 305.6612 14.33365601646438
Epoch: 2026-05-24T19:57Z
TLE epoch observation values (Epoch: 2026-05-24T19:57:07.972Z)
Latitude
-0.00009°
Longitude
109.61993°
Altitude
768.251 km
Speed
7.478 km/s
True Right ascension
19h 25m 19s
True Declination
0° 00' 00"
Sunlit
Object was in full shadow at epoch
Visualization orbit readout
Latitude
Unknown
Longitude
Unknown
Altitude
Unknown
Speed
Unknown
Apparent Right ascension
Unknown
Apparent Declination
Unknown
Sunlit
N/A
Visualization observer readout
Local Sidereal Time
06:26:57
Azimuth
Unknown
Elevation
Unknown
Doppler factor
Unknown
Orbital elements
Apogee altitude
803.793 km
Perigee altitude
751.361 km
Semi-major axis
7,155.714 km
Eccentricity
0.00366
Inclination
82.8034°
RAAN
291.331°
Arg. of periapsis
54.7997°
True anomaly
305.3192°
Mean anomaly
305.6612°
Eccentric anomaly
305.49029°
Mean motion
3.58562 °/min
Orbital period
100.4 mins
BSTAR
0.0011896
Loading maneuver chart data...
Computing Atmospheric mass density...
Loading historical data...
Loading historical data...
Loading historical data...
Loading historical data...
Loading historical data...
Loading historical data...
Loading historical data...

Documentation

Showing up to 5 results
|